owner,sensor,date,latitude,longitude,air_temperature,qcFlag 
WAVCIS,ioos:station:WAVCIS:CSI09:1,2009-01-01T00:00:00Z,29.1015,-89.9782,15.72,11111222 
WAVCIS,ioos:station:WAVCIS:CSI09:1,2009-01-01T01:00:00Z,29.1015,-89.9782,15.61,11111222 
WAVCIS,ioos:station:WAVCIS:CSI09:1,2009-01-01T02:00:00Z,29.1015,-89.9782,15.28,11111222 
WAVCIS,ioos:station:WAVCIS:CSI09:1,2009-01-01T03:00:00Z,29.1015,-89.9782,14.5,11111222 
WAVCIS,ioos:station:WAVCIS:CSI09:1,2009-01-01T04:00:00Z,29.1015,-89.9782,13.62,11111222 
WAVCIS,ioos:station:WAVCIS:CSI09:1,2009-01-01T05:00:00Z,29.1015,-89.9782,13.4,11111222 
WAVCIS,ioos:station:WAVCIS:CSI09:1,2009-01-01T06:00:00Z,29.1015,-89.9782,13.04,11111222 
WAVCIS,ioos:station:WAVCIS:CSI09:1,2009-01-01T07:00:00Z,29.1015,-89.9782,12.46,11111222 
WAVCIS,ioos:station:WAVCIS:CSI09:1,2009-01-01T08:00:00Z,29.1015,-89.9782,12.28,11111222 
WAVCIS,ioos:station:WAVCIS:CSI09:1,2009-01-01T09:00:00Z,29.1015,-89.9782,12.19,11111222 
WAVCIS,ioos:station:WAVCIS:CSI09:1,2009-01-01T10:00:00Z,29.1015,-89.9782,12.36,11111222 
WAVCIS,ioos:station:WAVCIS:CSI09:1,2009-01-01T11:00:00Z,29.1015,-89.9782,12.38,11111222 
WAVCIS,ioos:station:WAVCIS:CSI09:1,2009-01-01T12:00:00Z,29.1015,-89.9782,12.54,11111222 
WAVCIS,ioos:station:WAVCIS:CSI09:1,2009-01-01T13:00:00Z,29.1015,-89.9782,13.09,11111222 
WAVCIS,ioos:station:WAVCIS:CSI09:1,2009-01-01T14:00:00Z,29.1015,-89.9782,13.92,11111222 
WAVCIS,ioos:station:WAVCIS:CSI09:1,2009-01-01T15:00:00Z,29.1015,-89.9782,14.96,11111222 
WAVCIS,ioos:station:WAVCIS:CSI09:1,2009-01-01T16:00:00Z,29.1015,-89.9782,15.94,11111222 
WAVCIS,ioos:station:WAVCIS:CSI09:1,2009-01-01T17:00:00Z,29.1015,-89.9782,16.45,11111222 
WAVCIS,ioos:station:WAVCIS:CSI09:1,2009-01-01T18:00:00Z,29.1015,-89.9782,16.81,11111222 
WAVCIS,ioos:station:WAVCIS:CSI09:1,2009-01-01T19:00:00Z,29.1015,-89.9782,16.7,11111222 
WAVCIS,ioos:station:WAVCIS:CSI09:1,2009-01-01T20:00:00Z,29.1015,-89.9782,16.64,11111222 
WAVCIS,ioos:station:WAVCIS:CSI09:1,2009-01-01T21:00:00Z,29.1015,-89.9782,16.98,11111222 
WAVCIS,ioos:station:WAVCIS:CSI09:1,2009-01-01T22:00:00Z,29.1015,-89.9782,17.44,11111222 
WAVCIS,ioos:station:WAVCIS:CSI09:1,2009-01-01T23:00:00Z,29.1015,-89.9782,16.54,11111222 
WAVCIS,ioos:station:WAVCIS:CSI09:1,2009-01-02T00:00:00Z,29.1015,-89.9782,16.52,11111222 
WAVCIS,ioos:station:WAVCIS:CSI09:1,2009-01-02T01:00:00Z,29.1015,-89.9782,16.85,11111222 
WAVCIS,ioos:station:WAVCIS:CSI09:1,2009-01-02T02:00:00Z,29.1015,-89.9782,17.2,11111222 
WAVCIS,ioos:station:WAVCIS:CSI09:1,2009-01-02T03:00:00Z,29.1015,-89.9782,17.46,11111222 
WAVCIS,ioos:station:WAVCIS:CSI09:1,2009-01-02T04:00:00Z,29.1015,-89.9782,17.42,11111222 
WAVCIS,ioos:station:WAVCIS:CSI09:1,2009-01-02T05:00:00Z,29.1015,-89.9782,17.85,11111222 
WAVCIS,ioos:station:WAVCIS:CSI09:1,2009-01-02T06:00:00Z,29.1015,-89.9782,18.59,11111222 
WAVCIS,ioos:station:WAVCIS:CSI09:1,2009-01-02T07:00:00Z,29.1015,-89.9782,18.78,11111222 
WAVCIS,ioos:station:WAVCIS:CSI09:1,2009-01-02T08:00:00Z,29.1015,-89.9782,19.38,11111222 
WAVCIS,ioos:station:WAVCIS:CSI09:1,2009-01-02T09:00:00Z,29.1015,-89.9782,19.97,11111222 
WAVCIS,ioos:station:WAVCIS:CSI09:1,2009-01-02T10:00:00Z,29.1015,-89.9782,20.4,11111222 
WAVCIS,ioos:station:WAVCIS:CSI09:1,2009-01-02T11:00:00Z,29.1015,-89.9782,20.13,11111222 
WAVCIS,ioos:station:WAVCIS:CSI09:1,2009-01-02T12:00:00Z,29.1015,-89.9782,20.68,11111222 
WAVCIS,ioos:station:WAVCIS:CSI09:1,2009-01-02T13:00:00Z,29.1015,-89.9782,20.74,11111222 
WAVCIS,ioos:station:WAVCIS:CSI09:1,2009-01-02T14:00:00Z,29.1015,-89.9782,20.93,11111222 
WAVCIS,ioos:station:WAVCIS:CSI09:1,2009-01-02T15:00:00Z,29.1015,-89.9782,19.85,11111222 
WAVCIS,ioos:station:WAVCIS:CSI09:1,2009-01-02T16:00:00Z,29.1015,-89.9782,20.03,11111222 
WAVCIS,ioos:station:WAVCIS:CSI09:1,2009-01-02T17:00:00Z,29.1015,-89.9782,20.88,11111222 
WAVCIS,ioos:station:WAVCIS:CSI09:1,2009-01-02T18:00:00Z,29.1015,-89.9782,20.07,11111222 
WAVCIS,ioos:station:WAVCIS:CSI09:1,2009-01-02T19:00:00Z,29.1015,-89.9782,20.59,11111222 
WAVCIS,ioos:station:WAVCIS:CSI09:1,2009-01-02T20:00:00Z,29.1015,-89.9782,20.53,11111222 
WAVCIS,ioos:station:WAVCIS:CSI09:1,2009-01-02T21:00:00Z,29.1015,-89.9782,20.91,11111222 
WAVCIS,ioos:station:WAVCIS:CSI09:1,2009-01-02T22:00:00Z,29.1015,-89.9782,20.4,11111222 
WAVCIS,ioos:station:WAVCIS:CSI09:1,2009-01-02T23:00:00Z,29.1015,-89.9782,19.9,11111222 
WAVCIS,ioos:station:WAVCIS:CSI09:1,2009-01-03T00:00:00Z,29.1015,-89.9782,19.47,11111222 
WAVCIS,ioos:station:WAVCIS:CSI09:1,2009-01-03T01:00:00Z,29.1015,-89.9782,20.13,11111222 
WAVCIS,ioos:station:WAVCIS:CSI09:1,2009-01-03T02:00:00Z,29.1015,-89.9782,19.93,11111222 
WAVCIS,ioos:station:WAVCIS:CSI09:1,2009-01-03T03:00:00Z,29.1015,-89.9782,19.78,11111222 
WAVCIS,ioos:station:WAVCIS:CSI09:1,2009-01-03T04:00:00Z,29.1015,-89.9782,20.32,11111222 
WAVCIS,ioos:station:WAVCIS:CSI09:1,2009-01-03T05:00:00Z,29.1015,-89.9782,19.75,11111222 
WAVCIS,ioos:station:WAVCIS:CSI09:1,2009-01-03T06:00:00Z,29.1015,-89.9782,19.94,11111222 
WAVCIS,ioos:station:WAVCIS:CSI09:1,2009-01-03T07:00:00Z,29.1015,-89.9782,19.89,11111222 
WAVCIS,ioos:station:WAVCIS:CSI09:1,2009-01-03T08:00:00Z,29.1015,-89.9782,20.21,11111222 
WAVCIS,ioos:station:WAVCIS:CSI09:1,2009-01-03T09:00:00Z,29.1015,-89.9782,19.83,11111222 
WAVCIS,ioos:station:WAVCIS:CSI09:1,2009-01-03T10:00:00Z,29.1015,-89.9782,19.66,11111222 
WAVCIS,ioos:station:WAVCIS:CSI09:1,2009-01-03T11:00:00Z,29.1015,-89.9782,19.8,11111222 
WAVCIS,ioos:station:WAVCIS:CSI09:1,2009-01-03T12:00:00Z,29.1015,-89.9782,19.95,11111222 
WAVCIS,ioos:station:WAVCIS:CSI09:1,2009-01-03T13:00:00Z,29.1015,-89.9782,19.52,11111222 
WAVCIS,ioos:station:WAVCIS:CSI09:1,2009-01-03T14:00:00Z,29.1015,-89.9782,19.66,11111222 
WAVCIS,ioos:station:WAVCIS:CSI09:1,2009-01-03T15:00:00Z,29.1015,-89.9782,19.84,11111222 
WAVCIS,ioos:station:WAVCIS:CSI09:1,2009-01-03T16:00:00Z,29.1015,-89.9782,20.32,11111222 
WAVCIS,ioos:station:WAVCIS:CSI09:1,2009-01-03T17:00:00Z,29.1015,-89.9782,20.36,11111222 
WAVCIS,ioos:station:WAVCIS:CSI09:1,2009-01-03T18:00:00Z,29.1015,-89.9782,20.68,11111222 
WAVCIS,ioos:station:WAVCIS:CSI09:1,2009-01-03T19:00:00Z,29.1015,-89.9782,20.53,11111222 
WAVCIS,ioos:station:WAVCIS:CSI09:1,2009-01-03T20:00:00Z,29.1015,-89.9782,19.86,11111222 
WAVCIS,ioos:station:WAVCIS:CSI09:1,2009-01-03T21:00:00Z,29.1015,-89.9782,18.4,11111222 
WAVCIS,ioos:station:WAVCIS:CSI09:1,2009-01-03T22:00:00Z,29.1015,-89.9782,20.26,11111222 
WAVCIS,ioos:station:WAVCIS:CSI09:1,2009-01-03T23:00:00Z,29.1015,-89.9782,19.91,11111222 
WAVCIS,ioos:station:WAVCIS:CSI09:1,2009-01-04T00:00:00Z,29.1015,-89.9782,20.42,11111222 
WAVCIS,ioos:station:WAVCIS:CSI09:1,2009-01-04T01:00:00Z,29.1015,-89.9782,19.48,11111222 
WAVCIS,ioos:station:WAVCIS:CSI09:1,2009-01-04T02:00:00Z,29.1015,-89.9782,18.94,11111222 
WAVCIS,ioos:station:WAVCIS:CSI09:1,2009-01-04T03:00:00Z,29.1015,-89.9782,20.05,11111222 
WAVCIS,ioos:station:WAVCIS:CSI09:1,2009-01-04T04:00:00Z,29.1015,-89.9782,20.27,11111222 
WAVCIS,ioos:station:WAVCIS:CSI09:1,2009-01-04T05:00:00Z,29.1015,-89.9782,20.17,11111222 
WAVCIS,ioos:station:WAVCIS:CSI09:1,2009-01-04T06:00:00Z,29.1015,-89.9782,20.77,11111222 
WAVCIS,ioos:station:WAVCIS:CSI09:1,2009-01-04T07:00:00Z,29.1015,-89.9782,20.29,11111222 
WAVCIS,ioos:station:WAVCIS:CSI09:1,2009-01-04T08:00:00Z,29.1015,-89.9782,16.44,11111222 
WAVCIS,ioos:station:WAVCIS:CSI09:1,2009-01-04T09:00:00Z,29.1015,-89.9782,16.47,11111222 
WAVCIS,ioos:station:WAVCIS:CSI09:1,2009-01-04T10:00:00Z,29.1015,-89.9782,16.55,11111222 
WAVCIS,ioos:station:WAVCIS:CSI09:1,2009-01-04T11:00:00Z,29.1015,-89.9782,16.8,11111222 
WAVCIS,ioos:station:WAVCIS:CSI09:1,2009-01-04T12:00:00Z,29.1015,-89.9782,17.17,11111222 
WAVCIS,ioos:station:WAVCIS:CSI09:1,2009-01-04T13:00:00Z,29.1015,-89.9782,17.83,11111222 
WAVCIS,ioos:station:WAVCIS:CSI09:1,2009-01-04T14:00:00Z,29.1015,-89.9782,18.22,11111222 
WAVCIS,ioos:station:WAVCIS:CSI09:1,2009-01-04T15:00:00Z,29.1015,-89.9782,18.56,11111222 
WAVCIS,ioos:station:WAVCIS:CSI09:1,2009-01-04T16:00:00Z,29.1015,-89.9782,18.85,11111222 
WAVCIS,ioos:station:WAVCIS:CSI09:1,2009-01-04T17:00:00Z,29.1015,-89.9782,18.81,11111222 
WAVCIS,ioos:station:WAVCIS:CSI09:1,2009-01-04T18:00:00Z,29.1015,-89.9782,18.85,11111222 
WAVCIS,ioos:station:WAVCIS:CSI09:1,2009-01-04T19:00:00Z,29.1015,-89.9782,19.08,11111222 
WAVCIS,ioos:station:WAVCIS:CSI09:1,2009-01-04T20:00:00Z,29.1015,-89.9782,19.2,11111222 
WAVCIS,ioos:station:WAVCIS:CSI09:1,2009-01-04T21:00:00Z,29.1015,-89.9782,19.7,11111222 
WAVCIS,ioos:station:WAVCIS:CSI09:1,2009-01-04T22:00:00Z,29.1015,-89.9782,19.97,11111222 
WAVCIS,ioos:station:WAVCIS:CSI09:1,2009-01-04T23:00:00Z,29.1015,-89.9782,20.17,11111222 
WAVCIS,ioos:station:WAVCIS:CSI09:1,2009-01-05T00:00:00Z,29.1015,-89.9782,20.34,11111222 
WAVCIS,ioos:station:WAVCIS:CSI09:1,2009-01-05T01:00:00Z,29.1015,-89.9782,20.32,11111222 
WAVCIS,ioos:station:WAVCIS:CSI09:1,2009-01-05T02:00:00Z,29.1015,-89.9782,20.6,11111222 
WAVCIS,ioos:station:WAVCIS:CSI09:1,2009-01-05T03:00:00Z,29.1015,-89.9782,20.64,11111222 
WAVCIS,ioos:station:WAVCIS:CSI09:1,2009-01-05T04:00:00Z,29.1015,-89.9782,20.78,11111222 
WAVCIS,ioos:station:WAVCIS:CSI09:1,2009-01-05T05:00:00Z,29.1015,-89.9782,20.66,11111222 
WAVCIS,ioos:station:WAVCIS:CSI09:1,2009-01-05T06:00:00Z,29.1015,-89.9782,19.95,11111222 
WAVCIS,ioos:station:WAVCIS:CSI09:1,2009-01-05T07:00:00Z,29.1015,-89.9782,20.33,11111222 
WAVCIS,ioos:station:WAVCIS:CSI09:1,2009-01-05T08:00:00Z,29.1015,-89.9782,20.63,11111222 
WAVCIS,ioos:station:WAVCIS:CSI09:1,2009-01-05T09:00:00Z,29.1015,-89.9782,20.54,11111222 
WAVCIS,ioos:station:WAVCIS:CSI09:1,2009-01-05T10:00:00Z,29.1015,-89.9782,20.58,11111222 
WAVCIS,ioos:station:WAVCIS:CSI09:1,2009-01-05T11:00:00Z,29.1015,-89.9782,20.21,11111222 
WAVCIS,ioos:station:WAVCIS:CSI09:1,2009-01-05T12:00:00Z,29.1015,-89.9782,19.77,11111222 
WAVCIS,ioos:station:WAVCIS:CSI09:1,2009-01-05T13:00:00Z,29.1015,-89.9782,19.5,11111222 
WAVCIS,ioos:station:WAVCIS:CSI09:1,2009-01-05T14:00:00Z,29.1015,-89.9782,19.43,11111222 
WAVCIS,ioos:station:WAVCIS:CSI09:1,2009-01-05T15:00:00Z,29.1015,-89.9782,19.92,11111222 
WAVCIS,ioos:station:WAVCIS:CSI09:1,2009-01-05T16:00:00Z,29.1015,-89.9782,20.58,11111222 
WAVCIS,ioos:station:WAVCIS:CSI09:1,2009-01-05T17:00:00Z,29.1015,-89.9782,20.33,11111222 
WAVCIS,ioos:station:WAVCIS:CSI09:1,2009-01-05T18:00:00Z,29.1015,-89.9782,20.77,11111222 
WAVCIS,ioos:station:WAVCIS:CSI09:1,2009-01-05T19:00:00Z,29.1015,-89.9782,20.93,11111222 
WAVCIS,ioos:station:WAVCIS:CSI09:1,2009-01-05T20:00:00Z,29.1015,-89.9782,20.8,11111222 
WAVCIS,ioos:station:WAVCIS:CSI09:1,2009-01-05T21:00:00Z,29.1015,-89.9782,20.76,11111222 
WAVCIS,ioos:station:WAVCIS:CSI09:1,2009-01-05T22:00:00Z,29.1015,-89.9782,20.8,11111222 
WAVCIS,ioos:station:WAVCIS:CSI09:1,2009-01-05T23:00:00Z,29.1015,-89.9782,20.49,11111222 
WAVCIS,ioos:station:WAVCIS:CSI09:1,2009-01-06T00:00:00Z,29.1015,-89.9782,20.32,11111222 
WAVCIS,ioos:station:WAVCIS:CSI09:1,2009-01-06T01:00:00Z,29.1015,-89.9782,21.03,11111222 
WAVCIS,ioos:station:WAVCIS:CSI09:1,2009-01-06T02:00:00Z,29.1015,-89.9782,21.17,11111222 
WAVCIS,ioos:station:WAVCIS:CSI09:1,2009-01-06T03:00:00Z,29.1015,-89.9782,21.07,11111222 
WAVCIS,ioos:station:WAVCIS:CSI09:1,2009-01-06T04:00:00Z,29.1015,-89.9782,21.28,11111222 
WAVCIS,ioos:station:WAVCIS:CSI09:1,2009-01-06T05:00:00Z,29.1015,-89.9782,21.11,11111222 
WAVCIS,ioos:station:WAVCIS:CSI09:1,2009-01-06T06:00:00Z,29.1015,-89.9782,20.97,11111222 
WAVCIS,ioos:station:WAVCIS:CSI09:1,2009-01-06T07:00:00Z,29.1015,-89.9782,20.46,11111222 
WAVCIS,ioos:station:WAVCIS:CSI09:1,2009-01-06T08:00:00Z,29.1015,-89.9782,20.65,11111222 
WAVCIS,ioos:station:WAVCIS:CSI09:1,2009-01-06T09:00:00Z,29.1015,-89.9782,20.43,11111222 
WAVCIS,ioos:station:WAVCIS:CSI09:1,2009-01-06T10:00:00Z,29.1015,-89.9782,21.22,11111222 
WAVCIS,ioos:station:WAVCIS:CSI09:1,2009-01-06T11:00:00Z,29.1015,-89.9782,20.74,11111222 
WAVCIS,ioos:station:WAVCIS:CSI09:1,2009-01-06T12:00:00Z,29.1015,-89.9782,21.23,11111222 
WAVCIS,ioos:station:WAVCIS:CSI09:1,2009-01-06T13:00:00Z,29.1015,-89.9782,20.76,11111222 
WAVCIS,ioos:station:WAVCIS:CSI09:1,2009-01-06T14:00:00Z,29.1015,-89.9782,20.37,11111222 
WAVCIS,ioos:station:WAVCIS:CSI09:1,2009-01-06T15:00:00Z,29.1015,-89.9782,21.56,11111222 
WAVCIS,ioos:station:WAVCIS:CSI09:1,2009-01-06T16:00:00Z,29.1015,-89.9782,20.88,11111222 
WAVCIS,ioos:station:WAVCIS:CSI09:1,2009-01-06T17:00:00Z,29.1015,-89.9782,21.46,11111222 
WAVCIS,ioos:station:WAVCIS:CSI09:1,2009-01-06T18:00:00Z,29.1015,-89.9782,22.08,11111222 
WAVCIS,ioos:station:WAVCIS:CSI09:1,2009-01-06T19:00:00Z,29.1015,-89.9782,21.76,11111222 
WAVCIS,ioos:station:WAVCIS:CSI09:1,2009-01-06T20:00:00Z,29.1015,-89.9782,21.69,11111222 
WAVCIS,ioos:station:WAVCIS:CSI09:1,2009-01-06T21:00:00Z,29.1015,-89.9782,22.92,11111222 
WAVCIS,ioos:station:WAVCIS:CSI09:1,2009-01-06T22:00:00Z,29.1015,-89.9782,23.05,11111222 
WAVCIS,ioos:station:WAVCIS:CSI09:1,2009-01-06T23:00:00Z,29.1015,-89.9782,23.34,11111222 
WAVCIS,ioos:station:WAVCIS:CSI09:1,2009-01-07T00:00:00Z,29.1015,-89.9782,23.15,11111222 
WAVCIS,ioos:station:WAVCIS:CSI09:1,2009-01-07T01:00:00Z,29.1015,-89.9782,22.09,11111222 
WAVCIS,ioos:station:WAVCIS:CSI09:1,2009-01-07T02:00:00Z,29.1015,-89.9782,19.02,11111222 
WAVCIS,ioos:station:WAVCIS:CSI09:1,2009-01-07T03:00:00Z,29.1015,-89.9782,18.15,11111222 
WAVCIS,ioos:station:WAVCIS:CSI09:1,2009-01-07T04:00:00Z,29.1015,-89.9782,17.36,11111222 
WAVCIS,ioos:station:WAVCIS:CSI09:1,2009-01-07T05:00:00Z,29.1015,-89.9782,17.42,11111222 
WAVCIS,ioos:station:WAVCIS:CSI09:1,2009-01-07T06:00:00Z,29.1015,-89.9782,17.21,11111222 
WAVCIS,ioos:station:WAVCIS:CSI09:1,2009-01-07T07:00:00Z,29.1015,-89.9782,16.89,11111222 
WAVCIS,ioos:station:WAVCIS:CSI09:1,2009-01-07T08:00:00Z,29.1015,-89.9782,17.07,11111222 
WAVCIS,ioos:station:WAVCIS:CSI09:1,2009-01-07T09:00:00Z,29.1015,-89.9782,17.41,11111222 
WAVCIS,ioos:station:WAVCIS:CSI09:1,2009-01-07T10:00:00Z,29.1015,-89.9782,17.49,11111222 
WAVCIS,ioos:station:WAVCIS:CSI09:1,2009-01-07T11:00:00Z,29.1015,-89.9782,16.47,11111222 
WAVCIS,ioos:station:WAVCIS:CSI09:1,2009-01-07T12:00:00Z,29.1015,-89.9782,15.25,11111222 
WAVCIS,ioos:station:WAVCIS:CSI09:1,2009-01-07T13:00:00Z,29.1015,-89.9782,13.67,11111222 
WAVCIS,ioos:station:WAVCIS:CSI09:1,2009-01-07T14:00:00Z,29.1015,-89.9782,12.47,11111222 
WAVCIS,ioos:station:WAVCIS:CSI09:1,2009-01-07T15:00:00Z,29.1015,-89.9782,12.52,11111222 
WAVCIS,ioos:station:WAVCIS:CSI09:1,2009-01-07T16:00:00Z,29.1015,-89.9782,12.64,11111222 
WAVCIS,ioos:station:WAVCIS:CSI09:1,2009-01-07T17:00:00Z,29.1015,-89.9782,12.92,11111222 
WAVCIS,ioos:station:WAVCIS:CSI09:1,2009-01-07T18:00:00Z,29.1015,-89.9782,13.31,11111222 
WAVCIS,ioos:station:WAVCIS:CSI09:1,2009-01-07T19:00:00Z,29.1015,-89.9782,13.8,11111222 
WAVCIS,ioos:station:WAVCIS:CSI09:1,2009-01-07T20:00:00Z,29.1015,-89.9782,14.21,11111222 
WAVCIS,ioos:station:WAVCIS:CSI09:1,2009-01-07T21:00:00Z,29.1015,-89.9782,15.02,11111222 
WAVCIS,ioos:station:WAVCIS:CSI09:1,2009-01-07T22:00:00Z,29.1015,-89.9782,15.89,11111222 
WAVCIS,ioos:station:WAVCIS:CSI09:1,2009-01-07T23:00:00Z,29.1015,-89.9782,15.26,11111222 
WAVCIS,ioos:station:WAVCIS:CSI09:1,2009-01-08T00:00:00Z,29.1015,-89.9782,14.74,11111222 
WAVCIS,ioos:station:WAVCIS:CSI09:1,2009-01-08T01:00:00Z,29.1015,-89.9782,15.26,11111222 
WAVCIS,ioos:station:WAVCIS:CSI09:1,2009-01-08T02:00:00Z,29.1015,-89.9782,15.28,11111222 
WAVCIS,ioos:station:WAVCIS:CSI09:1,2009-01-08T03:00:00Z,29.1015,-89.9782,15.61,11111222 
WAVCIS,ioos:station:WAVCIS:CSI09:1,2009-01-08T04:00:00Z,29.1015,-89.9782,15.98,11111222 
WAVCIS,ioos:station:WAVCIS:CSI09:1,2009-01-08T05:00:00Z,29.1015,-89.9782,16.32,11111222 
WAVCIS,ioos:station:WAVCIS:CSI09:1,2009-01-08T06:00:00Z,29.1015,-89.9782,16.6,11111222 
WAVCIS,ioos:station:WAVCIS:CSI09:1,2009-01-08T07:00:00Z,29.1015,-89.9782,16.99,11111222 
WAVCIS,ioos:station:WAVCIS:CSI09:1,2009-01-08T08:00:00Z,29.1015,-89.9782,17.57,11111222 
WAVCIS,ioos:station:WAVCIS:CSI09:1,2009-01-08T09:00:00Z,29.1015,-89.9782,17.83,11111222 
WAVCIS,ioos:station:WAVCIS:CSI09:1,2009-01-08T10:00:00Z,29.1015,-89.9782,17.96,11111222 
WAVCIS,ioos:station:WAVCIS:CSI09:1,2009-01-08T11:00:00Z,29.1015,-89.9782,17.95,11111222 
WAVCIS,ioos:station:WAVCIS:CSI09:1,2009-01-08T12:00:00Z,29.1015,-89.9782,18.0,11111222 
WAVCIS,ioos:station:WAVCIS:CSI09:1,2009-01-08T13:00:00Z,29.1015,-89.9782,18.13,11111222 
WAVCIS,ioos:station:WAVCIS:CSI09:1,2009-01-08T14:00:00Z,29.1015,-89.9782,18.5,11111222 
WAVCIS,ioos:station:WAVCIS:CSI09:1,2009-01-08T15:00:00Z,29.1015,-89.9782,18.66,11111222 
WAVCIS,ioos:station:WAVCIS:CSI09:1,2009-01-08T16:00:00Z,29.1015,-89.9782,18.68,11111222 
WAVCIS,ioos:station:WAVCIS:CSI09:1,2009-01-08T17:00:00Z,29.1015,-89.9782,18.74,11111222 
WAVCIS,ioos:station:WAVCIS:CSI09:1,2009-01-08T18:00:00Z,29.1015,-89.9782,18.76,11111222 
WAVCIS,ioos:station:WAVCIS:CSI09:1,2009-01-08T19:00:00Z,29.1015,-89.9782,18.83,11111222 
WAVCIS,ioos:station:WAVCIS:CSI09:1,2009-01-08T20:00:00Z,29.1015,-89.9782,19.0,11111222 
WAVCIS,ioos:station:WAVCIS:CSI09:1,2009-01-08T21:00:00Z,29.1015,-89.9782,19.12,11111222 
WAVCIS,ioos:station:WAVCIS:CSI09:1,2009-01-08T22:00:00Z,29.1015,-89.9782,19.61,11111222 
WAVCIS,ioos:station:WAVCIS:CSI09:1,2009-01-08T23:00:00Z,29.1015,-89.9782,19.18,11111222 
WAVCIS,ioos:station:WAVCIS:CSI09:1,2009-01-09T00:00:00Z,29.1015,-89.9782,18.89,11111222 
WAVCIS,ioos:station:WAVCIS:CSI09:1,2009-01-09T01:00:00Z,29.1015,-89.9782,18.64,11111222 
WAVCIS,ioos:station:WAVCIS:CSI09:1,2009-01-09T02:00:00Z,29.1015,-89.9782,18.55,11111222 
WAVCIS,ioos:station:WAVCIS:CSI09:1,2009-01-09T03:00:00Z,29.1015,-89.9782,18.44,11111222 
WAVCIS,ioos:station:WAVCIS:CSI09:1,2009-01-09T04:00:00Z,29.1015,-89.9782,18.46,11111222 
WAVCIS,ioos:station:WAVCIS:CSI09:1,2009-01-09T05:00:00Z,29.1015,-89.9782,18.23,11111222 
WAVCIS,ioos:station:WAVCIS:CSI09:1,2009-01-09T06:00:00Z,29.1015,-89.9782,18.06,11111222 
WAVCIS,ioos:station:WAVCIS:CSI09:1,2009-01-09T07:00:00Z,29.1015,-89.9782,18.1,11111222 
WAVCIS,ioos:station:WAVCIS:CSI09:1,2009-01-09T08:00:00Z,29.1015,-89.9782,17.99,11111222 
WAVCIS,ioos:station:WAVCIS:CSI09:1,2009-01-09T09:00:00Z,29.1015,-89.9782,18.0,11111222 
WAVCIS,ioos:station:WAVCIS:CSI09:1,2009-01-09T10:00:00Z,29.1015,-89.9782,17.91,11111222 
WAVCIS,ioos:station:WAVCIS:CSI09:1,2009-01-09T11:00:00Z,29.1015,-89.9782,17.97,11111222 
WAVCIS,ioos:station:WAVCIS:CSI09:1,2009-01-09T12:00:00Z,29.1015,-89.9782,17.54,11111222 
WAVCIS,ioos:station:WAVCIS:CSI09:1,2009-01-09T13:00:00Z,29.1015,-89.9782,17.22,11111222 
WAVCIS,ioos:station:WAVCIS:CSI09:1,2009-01-09T14:00:00Z,29.1015,-89.9782,17.79,11111222 
WAVCIS,ioos:station:WAVCIS:CSI09:1,2009-01-09T15:00:00Z,29.1015,-89.9782,18.17,11111222 
WAVCIS,ioos:station:WAVCIS:CSI09:1,2009-01-09T16:00:00Z,29.1015,-89.9782,18.2,11111222 
WAVCIS,ioos:station:WAVCIS:CSI09:1,2009-01-09T17:00:00Z,29.1015,-89.9782,18.04,11111222 
WAVCIS,ioos:station:WAVCIS:CSI09:1,2009-01-09T18:00:00Z,29.1015,-89.9782,17.99,11111222 
WAVCIS,ioos:station:WAVCIS:CSI09:1,2009-01-09T19:00:00Z,29.1015,-89.9782,17.97,11111222 
WAVCIS,ioos:station:WAVCIS:CSI09:1,2009-01-09T20:00:00Z,29.1015,-89.9782,18.43,11111222 
WAVCIS,ioos:station:WAVCIS:CSI09:1,2009-01-09T21:00:00Z,29.1015,-89.9782,18.85,11111222 
WAVCIS,ioos:station:WAVCIS:CSI09:1,2009-01-09T22:00:00Z,29.1015,-89.9782,19.01,11111222 
WAVCIS,ioos:station:WAVCIS:CSI09:1,2009-01-09T23:00:00Z,29.1015,-89.9782,19.21,11111222 
WAVCIS,ioos:station:WAVCIS:CSI09:1,2009-01-10T00:00:00Z,29.1015,-89.9782,19.56,11111222 
WAVCIS,ioos:station:WAVCIS:CSI09:1,2009-01-10T01:00:00Z,29.1015,-89.9782,19.62,11111222 
WAVCIS,ioos:station:WAVCIS:CSI09:1,2009-01-10T02:00:00Z,29.1015,-89.9782,19.63,11111222 
WAVCIS,ioos:station:WAVCIS:CSI09:1,2009-01-10T03:00:00Z,29.1015,-89.9782,19.98,11111222 
WAVCIS,ioos:station:WAVCIS:CSI09:1,2009-01-10T04:00:00Z,29.1015,-89.9782,20.01,11111222 
WAVCIS,ioos:station:WAVCIS:CSI09:1,2009-01-10T05:00:00Z,29.1015,-89.9782,19.97,11111222 
WAVCIS,ioos:station:WAVCIS:CSI09:1,2009-01-10T06:00:00Z,29.1015,-89.9782,20.11,11111222 
WAVCIS,ioos:station:WAVCIS:CSI09:1,2009-01-10T07:00:00Z,29.1015,-89.9782,20.39,11111222 
WAVCIS,ioos:station:WAVCIS:CSI09:1,2009-01-10T08:00:00Z,29.1015,-89.9782,20.97,11111222 
WAVCIS,ioos:station:WAVCIS:CSI09:1,2009-01-10T09:00:00Z,29.1015,-89.9782,20.64,11111222 
WAVCIS,ioos:station:WAVCIS:CSI09:1,2009-01-10T10:00:00Z,29.1015,-89.9782,20.68,11111222 
WAVCIS,ioos:station:WAVCIS:CSI09:1,2009-01-10T11:00:00Z,29.1015,-89.9782,20.26,11111222 
WAVCIS,ioos:station:WAVCIS:CSI09:1,2009-01-10T12:00:00Z,29.1015,-89.9782,20.82,11111222 
WAVCIS,ioos:station:WAVCIS:CSI09:1,2009-01-10T13:00:00Z,29.1015,-89.9782,21.1,11111222 
WAVCIS,ioos:station:WAVCIS:CSI09:1,2009-01-10T14:00:00Z,29.1015,-89.9782,21.17,11111222 
WAVCIS,ioos:station:WAVCIS:CSI09:1,2009-01-10T15:00:00Z,29.1015,-89.9782,20.56,11111222 
WAVCIS,ioos:station:WAVCIS:CSI09:1,2009-01-10T16:00:00Z,29.1015,-89.9782,20.66,11111222 
WAVCIS,ioos:station:WAVCIS:CSI09:1,2009-01-10T17:00:00Z,29.1015,-89.9782,21.11,11111222 
WAVCIS,ioos:station:WAVCIS:CSI09:1,2009-01-10T18:00:00Z,29.1015,-89.9782,21.38,11111222 
WAVCIS,ioos:station:WAVCIS:CSI09:1,2009-01-10T19:00:00Z,29.1015,-89.9782,21.45,11111222 
WAVCIS,ioos:station:WAVCIS:CSI09:1,2009-01-10T20:00:00Z,29.1015,-89.9782,21.97,11111222 
WAVCIS,ioos:station:WAVCIS:CSI09:1,2009-01-10T21:00:00Z,29.1015,-89.9782,21.9,11111222 
WAVCIS,ioos:station:WAVCIS:CSI09:1,2009-01-10T22:00:00Z,29.1015,-89.9782,21.41,11111222 
WAVCIS,ioos:station:WAVCIS:CSI09:1,2009-01-10T23:00:00Z,29.1015,-89.9782,21.43,11111222 
WAVCIS,ioos:station:WAVCIS:CSI09:1,2009-01-11T00:00:00Z,29.1015,-89.9782,21.36,11111222 
WAVCIS,ioos:station:WAVCIS:CSI09:1,2009-01-11T01:00:00Z,29.1015,-89.9782,21.53,11111222 
WAVCIS,ioos:station:WAVCIS:CSI09:1,2009-01-11T02:00:00Z,29.1015,-89.9782,21.39,11111222 
WAVCIS,ioos:station:WAVCIS:CSI09:1,2009-01-11T03:00:00Z,29.1015,-89.9782,20.6,11111222 
WAVCIS,ioos:station:WAVCIS:CSI09:1,2009-01-11T04:00:00Z,29.1015,-89.9782,20.86,11111222 
WAVCIS,ioos:station:WAVCIS:CSI09:1,2009-01-11T05:00:00Z,29.1015,-89.9782,18.41,11111222 
WAVCIS,ioos:station:WAVCIS:CSI09:1,2009-01-11T06:00:00Z,29.1015,-89.9782,18.59,11111222 
WAVCIS,ioos:station:WAVCIS:CSI09:1,2009-01-11T07:00:00Z,29.1015,-89.9782,17.48,11111222 
WAVCIS,ioos:station:WAVCIS:CSI09:1,2009-01-11T08:00:00Z,29.1015,-89.9782,16.31,11111222 
WAVCIS,ioos:station:WAVCIS:CSI09:1,2009-01-11T09:00:00Z,29.1015,-89.9782,14.85,11111222 
WAVCIS,ioos:station:WAVCIS:CSI09:1,2009-01-11T10:00:00Z,29.1015,-89.9782,13.62,11111222 
WAVCIS,ioos:station:WAVCIS:CSI09:1,2009-01-11T11:00:00Z,29.1015,-89.9782,12.21,11111222 
WAVCIS,ioos:station:WAVCIS:CSI09:1,2009-01-11T12:00:00Z,29.1015,-89.9782,11.2,11111222 
WAVCIS,ioos:station:WAVCIS:CSI09:1,2009-01-11T13:00:00Z,29.1015,-89.9782,11.06,11111222 
WAVCIS,ioos:station:WAVCIS:CSI09:1,2009-01-11T14:00:00Z,29.1015,-89.9782,10.51,11111222 
WAVCIS,ioos:station:WAVCIS:CSI09:1,2009-01-11T15:00:00Z,29.1015,-89.9782,10.2,11111222 
WAVCIS,ioos:station:WAVCIS:CSI09:1,2009-01-11T16:00:00Z,29.1015,-89.9782,9.74,11111222 
WAVCIS,ioos:station:WAVCIS:CSI09:1,2009-01-11T17:00:00Z,29.1015,-89.9782,9.96,11111222 
WAVCIS,ioos:station:WAVCIS:CSI09:1,2009-01-11T18:00:00Z,29.1015,-89.9782,9.11,11111222 
WAVCIS,ioos:station:WAVCIS:CSI09:1,2009-01-11T19:00:00Z,29.1015,-89.9782,9.48,11111222 
WAVCIS,ioos:station:WAVCIS:CSI09:1,2009-01-11T20:00:00Z,29.1015,-89.9782,9.5,11111222 
WAVCIS,ioos:station:WAVCIS:CSI09:1,2009-01-11T21:00:00Z,29.1015,-89.9782,9.66,11111222 
WAVCIS,ioos:station:WAVCIS:CSI09:1,2009-01-11T22:00:00Z,29.1015,-89.9782,9.99,11111222 
WAVCIS,ioos:station:WAVCIS:CSI09:1,2009-01-11T23:00:00Z,29.1015,-89.9782,10.04,11111222 
WAVCIS,ioos:station:WAVCIS:CSI09:1,2009-01-12T00:00:00Z,29.1015,-89.9782,10.34,11111222 
WAVCIS,ioos:station:WAVCIS:CSI09:1,2009-01-12T01:00:00Z,29.1015,-89.9782,10.86,11111222 
WAVCIS,ioos:station:WAVCIS:CSI09:1,2009-01-12T02:00:00Z,29.1015,-89.9782,10.89,11111222 
WAVCIS,ioos:station:WAVCIS:CSI09:1,2009-01-12T03:00:00Z,29.1015,-89.9782,10.25,11111222 
WAVCIS,ioos:station:WAVCIS:CSI09:1,2009-01-12T04:00:00Z,29.1015,-89.9782,9.33,11111222 